TimeEST,TemperatureF,Dew PointF,Humidity,Sea Level PressureIn,VisibilityMPH,Wind Direction,Wind SpeedMPH,Gust SpeedMPH,PrecipitationIn,Events,Conditions,WindDirDegrees,DateUTC
12:53 AM,59.0,57.0,93,29.35,2.0,South,17.3,34.5,0.05,Rain,Heavy Rain,180,2013-01-31 05:53:00
1:07 AM,59.0,57.2,94,29.34,4.0,South,17.3,36.8,0.02,Rain,Light Rain,190,2013-01-31 06:07:00
1:29 AM,59.0,57.2,94,29.32,1.8,South,19.6,33.4,0.07,Rain,Rain,180,2013-01-31 06:29:00
1:51 AM,59.0,57.2,94,29.29,2.5,South,23.0,34.5,0.15,Rain,Light Rain,190,2013-01-31 06:51:00
1:53 AM,59.0,57.0,93,29.29,2.0,South,20.7,34.5,0.15,Rain,Light Rain,190,2013-01-31 06:53:00
2:24 AM,60.8,57.2,88,29.25,3.0,South,20.7,42.6,0.02,Rain,Light Rain,190,2013-01-31 07:24:00
2:53 AM,60.1,57.0,90,29.20,4.0,South,32.2,42.6,0.04,Rain,Rain,190,2013-01-31 07:53:00
3:05 AM,60.8,57.2,88,29.18,4.0,South,26.5,41.4,0.02,Rain,Rain,190,2013-01-31 08:05:00
3:53 AM,61.0,57.0,87,29.12,5.0,South,25.3,41.4,0.09,Rain,Rain,180,2013-01-31 08:53:00
4:18 AM,60.8,57.2,88,29.09,2.5,South,25.3,41.4,0.07,Rain,Rain,190,2013-01-31 09:18:00
4:32 AM,60.8,57.2,88,29.05,1.8,South,26.5,50.6,0.16,Rain,Heavy Rain,190,2013-01-31 09:32:00
4:43 AM,60.8,57.2,88,29.02,2.0,South,33.4,54.1,0.24,Rain,Heavy Rain,190,2013-01-31 09:43:00
4:53 AM,61.0,57.9,90,29.02,2.0,South,34.5,52.9,0.29,Rain,Heavy Rain,190,2013-01-31 09:53:00
5:05 AM,60.8,59.0,94,29.03,1.5,South,28.8,51.8,0.10,Rain,Heavy Rain,190,2013-01-31 10:05:00
5:24 AM,60.8,57.2,88,29.05,3.0,SSW,26.5,42.6,0.22,Rain,Light Rain,200,2013-01-31 10:24:00
5:34 AM,60.8,55.4,82,29.06,10.0,SSW,18.4,46.0,0.22,Rain,Light Rain,200,2013-01-31 10:34:00
5:53 AM,60.1,55.0,83,29.09,4.0,SSW,19.6,34.5,0.25,Rain,Rain,200,2013-01-31 10:53:00
7:26 AM,55.4,53.6,94,29.02,10.0,South,15.0,23.0,N/A,,Mostly Cloudy,180,2013-01-31 12:26:00
7:53 AM,57.0,52.0,83,29.01,10.0,SSW,20.7,31.1,N/A,,Mostly Cloudy,200,2013-01-31 12:53:00
8:35 AM,55.4,46.4,72,29.08,10.0,West,18.4,32.2,0.00,,Overcast,260,2013-01-31 13:35:00
8:53 AM,51.1,41.0,68,29.11,6.0,West,19.6,38.0,0.01,Rain,Light Rain,270,2013-01-31 13:53:00
9:53 AM,50.0,35.1,57,29.19,10.0,West,23.0,35.7,0.00,,Mostly Cloudy,270,2013-01-31 14:53:00
10:53 AM,48.9,30.9,50,29.24,10.0,West,13.8,32.2,N/A,,Scattered Clouds,270,2013-01-31 15:53:00
11:53 AM,48.0,24.1,39,29.27,10.0,West,19.6,36.8,N/A,,Scattered Clouds,270,2013-01-31 16:53:00
12:53 PM,48.0,23.0,37,29.31,10.0,West,13.8,23.0,N/A,,Overcast,270,2013-01-31 17:53:00
1:53 PM,45.0,18.0,34,29.34,10.0,West,17.3,29.9,N/A,,Scattered Clouds,270,2013-01-31 18:53:00
2:53 PM,45.0,17.1,33,29.38,10.0,West,19.6,32.2,N/A,,Mostly Cloudy,260,2013-01-31 19:53:00
3:53 PM,43.0,17.1,35,29.42,10.0,West,16.1,23.0,N/A,,Scattered Clouds,280,2013-01-31 20:53:00
4:53 PM,42.1,12.0,29,29.46,10.0,West,27.6,41.4,N/A,,Mostly Cloudy,270,2013-01-31 21:53:00
5:53 PM,39.9,12.0,32,29.51,10.0,WSW,15.0,25.3,N/A,,Clear,250,2013-01-31 22:53:00
6:53 PM,37.0,16.0,42,29.57,10.0,West,20.7,29.9,N/A,,Clear,260,2013-01-31 23:53:00
7:53 PM,35.1,12.0,39,29.61,10.0,West,20.7,32.2,N/A,,Partly Cloudy,270,2013-02-01 00:53:00
8:53 PM,33.1,12.9,43,29.64,10.0,West,9.2,24.2,0.00,,Partly Cloudy,270,2013-02-01 01:53:00
9:53 PM,33.1,12.9,43,29.66,10.0,WSW,11.5,19.6,N/A,,Partly Cloudy,250,2013-02-01 02:53:00
10:53 PM,32.0,10.9,42,29.66,10.0,WSW,10.4,19.6,N/A,,Partly Cloudy,250,2013-02-01 03:53:00
11:53 PM,32.0,14.0,48,29.68,10.0,WSW,15.0,19.6,N/A,,Overcast,250,2013-02-01 04:53:00